Regional Weather Roundup
Issued by NWS

Home | Current Version | Previous Version | Text Only | Print | Product List | Glossary Off
Versions: 1 2 3 4 5 6 7 8 9 10 11 12 13 14 15 16 17 18 19 20 21 22 23 24 25 26 27 28 29 30 31 32 33 34 35 36 37 38 39 40 41 42 43 44 45 46 47 48 49 50

165
ASUS45 KTFX 311710
RWRMT
MONTANA REGIONAL WEATHER ROUNDUP
NATIONAL WEATHER SERVICE GREAT FALLS MT
1100 AM MDT TUE MAY 31 2016

NOTE: "FAIR" INDICATES FEW OR NO CLOUDS BELOW 12000 FEET WITH NO
SIGNIFICANT WEATHER AND/OR OBSTRUCTIONS TO VISIBILITY.

MTZ001>007-043-311800-
WEST OF THE DIVIDE

CITY           SKY/WX    TMP DP  RH WIND       PRES   REMARKS
KALISPELL      SUNNY     61  39  44 NE6       30.20F
MISSOULA       SUNNY     60  38  43 CALM      30.20F
BUTTE          SUNNY     51  31  46 VRB3      30.25F
MULLAN PASS    MOSUNNY   52  28  39 N3        30.23F
ANACONDA         N/A     54  32  43 SE5       30.24F
DEER LODGE       N/A     54  34  47 N5        30.25F
EUREKA           N/A     57  39  51 S3        30.22F
HAMILTON         N/A     57  34  41 N3        30.20F
LIBBY            N/A     61  39  44 N3        30.20F
$$

MTZ008-052>055-311800-
SOUTHWEST MONTANA

CITY           SKY/WX    TMP DP  RH WIND       PRES   REMARKS
BOZEMAN        PTSUNNY   54  36  50 N8        30.26F
DILLON         SUNNY     55  34  45 N9        30.23F
W YELLOWSTONE  PTSUNNY   48  27  43 N12G17    30.24F
ENNIS          SUNNY     54  34  47 N10G17    30.29F
$$

MTZ009-010-012-014-046-048-049-054-311800-
EAST SLOPES AND CENTRAL MONTANA

CITY           SKY/WX    TMP DP  RH WIND       PRES   REMARKS
CUT BANK       PTSUNNY   54  36  50 NW16G22   30.23F
GREAT FALLS    PTSUNNY   57  37  47 N14       30.25F
MALMSTROM AFB  MOSUNNY   53  36  51 NW16G23   30.25S
HELENA         CLOUDY    57  36  45 VRB6      30.25F
CHOTEAU          N/A     55  37  50 N15G21    30.25F
$$

MTZ011-013-016-021-045-047-050-051-311800-
NORTH CENTRAL MONTANA

CITY           SKY/WX    TMP DP  RH WIND       PRES   REMARKS
HAVRE          CLOUDY    52  46  80 NW15      30.17S
LEWISTOWN      LGT RAIN  44  41  89 W17G25    30.21S
N BAR RANCH    CLOUDY    46  39  76 NW22G31   30.19R
CHINOOK          N/A     54  48  82 W15G21    30.15R
$$

MTZ017>020-022>027-061-062-311800-
NORTHEAST MONTANA

CITY           SKY/WX    TMP DP  RH WIND       PRES   REMARKS
GLASGOW        CLOUDY    55  50  83 NW20G31   29.99R
JORDAN           N/A     53  50  89 NW23G31   30.02R
SIDNEY         RAIN      53  50  89 N22G30    29.80R
WOLF POINT     LGT RAIN  57  51  80 N25G33    29.92R
POPLAR           N/A     54  50  87 N18       29.89R
$$

MTZ028>42-056>058-311800-
SOUTHCENTRAL AND SOUTHEAST MONTANA

CITY           SKY/WX    TMP DP  RH WIND       PRES   REMARKS
BAKER          LGT RAIN  51  32  48 NW23G33   29.85R
BILLINGS       CLOUDY    53  37  54 NW26G36   30.16S
LIVINGSTON     SUNNY     55  34  45 N15G22    30.23F
MILES CITY     LGT RAIN  52  50  93 NW30G36   29.98R
FORSYTH          N/A     50  46  87 W20G36    30.05R
$$

REGIONAL REPORTS...DAKOTAS

CITY           SKY/WX    TMP DP  RH WIND       PRES   REMARKS
WILLISTON      LGT RAIN  54  48  80 N37G45    29.75R
MINOT          MOSUNNY   64  49  57 SW15G23   29.61S
DICKINSON      RAIN      49  47  93 SW18G26   29.66F FOG
BEACH          LGT RAIN  50  50 100 NW26G37   29.82R
CROSBY         RAIN      52  52 100 N25G35    29.80R
WATFORD CITY   RAIN      50  50 100 N31G45    29.69R
BISMARCK       CLOUDY    60  47  61 W13G21    29.71F
GRAND FORKS    CLOUDY    64  56  75 SW17      29.69R
FARGO          MOSUNNY   66  49  54 SW16      29.75S
BUFFALO SD       N/A     51  46  83 W44G55    29.79F
RAPID CITY     CLOUDY    63  34  33 NW21G33   29.96S
$$

REGIONAL REPORTS...WYOMING/IDAHO/WASHINGTON

CITY           SKY/WX    TMP DP  RH WIND       PRES   REMARKS
GILLETTE       CLOUDY    51  36  56 NW31G43   30.08R
SHERIDAN       CLOUDY    54  36  50 NW35G41   30.11F
BUFFALO WY     SUNNY     55  34  45 N31G43    30.10R
CODY           SUNNY     55  36  47 N6        30.18F
YELLOWSTONE LA   N/A     47  22  37 VRB3      30.27F
IDAHO FALLS    SUNNY     61  30  31 NE17      30.18S
SALMON         SUNNY     57  32  38 N5        30.17F
BOISE          SUNNY     64  36  35 VRB6      30.12F
SPOKANE        MOSUNNY   64  40  41 NE9       30.17S
$$

REGIONAL REPORTS...ALBERTA

CITY           SKY/WX    TMP DP  RH WIND       PRES   REMARKS
EDMONTON       PTSUNNY   55  45  67 CALM      30.19F
CALGARY        PTSUNNY   55  37  50 E6        30.21F
LETHBRIDGE     PTSUNNY   57  41  54 NW14G21   30.22F
MEDICINE HAT   CLOUDY    50  48  93 NW13      30.18S
WATERTON GATE    N/A     54  37  54 SW2         N/A
CARDSTON         N/A     54  37  54 N5          N/A
MILK RIVER       N/A     54  41  62 N15G22      N/A
$$

REGIONAL REPORTS...SASKATCHEWAN

CITY           SKY/WX    TMP DP  RH WIND       PRES   REMARKS
SWIFT CURRENT  MOSUNNY   57  48  72 NW23      30.04F
REGINA         CLOUDY    55  48  76 N17G26    29.93S
SASKATOON      CLOUDY    57  50  77 NE10      30.06S
CYPRESS HILLS    N/A     43  41  93 NW8         N/A
VAL MARIE        N/A     59  48  67 N22G31      N/A
ROCKGLEN         N/A     52  48  87 N22G31      N/A
ASSINIBOIA       N/A     55  46  71 N8          N/A
$$




USA.gov is the U.S. government's official web portal to all federal, state and local government web resources and services.